This is the latest recevied weather packets stored in our database for station/object IK2YOU-3. If no packets are shown the sender has not sent any weather packets the latest 10 day(s).
| Time | Temp. | Humidity | Pressure | Rain* | Wind** | Luminosity | Snow |
|---|---|---|---|---|---|---|---|
| 1777982645 | 16.67° C | 82% | 1010.5 hPa | 0 mm | - | 209 W/m² | - |
| 1777982044 | 16.67° C | 84% | 1010.6 hPa | 0 mm | - | 344 W/m² | - |
| 1777981444 | 16.67° C | 85% | 1010.6 hPa | 0 mm | - | 175 W/m² | - |
| 1777980844 | 16.11° C | 85% | 1010.6 hPa | 0 mm | - | 281 W/m² | - |
| 1777980244 | 15.56° C | 85% | 1010.6 hPa | 0 mm | - | 235 W/m² | - |
| 1777979644 | 15.56° C | 86% | 1010.7 hPa | 0 mm | - | 147 W/m² | - |
| 1777979057 | 15.56° C | 85% | 1010.8 hPa | 0 mm | - | 98 W/m² | - |
| 1777978443 | 15.56° C | 85% | 1010.9 hPa | 0 mm | - | 117 W/m² | - |
| 1777977844 | 15.56° C | 85% | 1010.8 hPa | 0 mm | - | 133 W/m² | - |
| 1777977240 | 15° C | 83% | 1010.8 hPa | 0 mm | - | 276 W/m² | - |
| 1777976766 | 15° C | 83% | 1010.8 hPa | 0 mm | - | 119 W/m² | - |
| 1777976040 | 15° C | 83% | 1010.8 hPa | 0 mm | - | 89 W/m² | - |
| 1777975568 | 15° C | 83% | 1010.9 hPa | 0 mm | - | 64 W/m² | - |
| 1777974840 | 14.44° C | 82% | 1010.9 hPa | 0 mm | - | 115 W/m² | - |
| 1777974240 | 14.44° C | 79% | 1010.9 hPa | 0 mm | - | 75 W/m² | - |
| 1777973640 | 14.44° C | 78% | 1011 hPa | 0 mm | - | 110 W/m² | - |
| 1777973040 | 14.44° C | 77% | 1010.8 hPa | 0 mm | - | 138 W/m² | - |
| 1777972439 | 14.44° C | 77% | 1010.7 hPa | 0 mm | - | 119 W/m² | - |
| 1777971968 | 13.89° C | 77% | 1010.8 hPa | 0 mm | - | 86 W/m² | - |
| 1777971238 | 13.89° C | 77% | 1010.6 hPa | 0 mm | - | 89 W/m² | - |
| 1777970637 | 13.89° C | 76% | 1010.6 hPa | 0 mm | - | 81 W/m² | - |
| 1777970037 | 13.89° C | 77% | 1010.6 hPa | 0 mm | - | 52 W/m² | - |
| 1777969437 | 13.89° C | 77% | 1010.7 hPa | 0 mm | - | 37 W/m² | - |
| 1777968837 | 13.89° C | 77% | 1010.6 hPa | 0.25 mm | - | 23 W/m² | - |
| 1777968364 | 13.33° C | 77% | 1010.6 hPa | 0.51 mm | - | 62 W/m² | - |
* Rain latest hour (hover to see other rain measurements)
** Current wind speed in m/s (hover to see current wind gust speed)